Regional Weather Roundup
Issued by NWS

Home | Current Version | Previous Version | Text Only | Print | Product List | Glossary Off
Versions: 1 2 3 4 5 6 7 8 9 10 11 12 13 14 15 16 17 18 19 20 21 22 23 24 25 26 27 28 29 30 31 32 33 34 35 36 37 38 39 40 41 42 43 44 45 46 47 48 49 50

287
ASUS43 KFSD 020002
RWRSD

WEATHER ROUNDUP FOR SOUTH DAKOTA
NATIONAL WEATHER SERVICE SIOUX FALLS SD
700 PM CDT SUN MAY 01 2016

NOTE: "FAIR" INDICATES FEW OR NO CLOUDS BELOW 12,000 FEET WITH NO
SIGNIFICANT WEATHER AND/OR OBSTRUCTIONS TO VISIBILITY.


SDZ001>005-009-010-012>017-020100-
NORTHWEST AND NORTH CENTRAL SOUTH DAKOTA

CITY           SKY/WX    TMP DP  RH WIND       PRES   REMARKS
BUFFALO          N/A     61  26  26 N6        30.15F
FAITH            N/A     60  28  29 VRB3      30.20S
MOBRIDGE       SUNNY     64  32  30 NW6       30.16F
$$

SDZ012>016-024>037-041>051-057-063-072>074-020100-
SOUTHWEST AND SOUTH CENTRAL SOUTH DAKOTA

CITY           SKY/WX    TMP DP  RH WIND       PRES   REMARKS
RAPID CTY ARPT SUNNY     57  29  34 N9        30.21F
PIERRE         SUNNY     58  36  43 W13       30.18F
CUSTER         SUNNY     51  22  31 VRB5      30.21F
ELLSWORTH AFB  SUNNY     58  28  31 N10       30.21F
PHILIP         SUNNY     59  32  36 NE13      30.19F
PINE RIDGE     SUNNY     55  28  35 N13       30.21R
WINNER         FAIR      58  32  37 N13       30.18F
$$

SDZ004>011-016>023-039-040-020100-
NORTHEAST SOUTH DAKOTA

CITY           SKY/WX    TMP DP  RH WIND       PRES   REMARKS
ABERDEEN       SUNNY     63  31  30 N10       30.17F
WATERTOWN      SUNNY     59  31  34 N9        30.15S
BROOKINGS      SUNNY     57  30  35 N10       30.14S
SISSETON         N/A     63  29  27 NE13      30.14F
$$

SDZ017-020-022-023-036>040-048>070-020100-
SOUTHEAST SOUTH DAKOTA

CITY           SKY/WX    TMP DP  RH WIND       PRES   REMARKS
SIOUX FALLS    MOSUNNY   55  37  50 N7        30.13F
HURON          SUNNY     60  33  36 NE13      30.16F
MITCHELL       SUNNY     59  37  44 N12       30.16F
YANKTON        PTSUNNY   55  36  47 N7        30.14F
$$

ABBREVIATIONS USED IN REMARKS
   TC - TEMPERATURE IN CELSIUS
  WCI - WIND CHILL INDEX
   HX - HEAT INDEX
  VSB - VISIBILITY





USA.gov is the U.S. government's official web portal to all federal, state and local government web resources and services.